Home > Weather > New Haven > Past weeks

Flag for USA Past Weather in New Haven, Connecticut, USA — Yesterday and Last 2 Weeks

Now
83 °F

Broken clouds.


Feels Like: 84 °F
Forecast: 70 / 90 °F
Wind: 9 mph from Southwest

Location: Tweed-New Haven Airport

Current Time: Jul 24, 2016 at 4:43:52 PM

Latest Report: Jul 24, 2016 at 3:53 PM


Visibility: 10 mi

Pressure: 29.93 "Hg

Humidity: 53%

Dew Point: 64 °F

Location of New HavenLocation

Past Weather in New Haven — Graph

°F

New Haven Temperature Yesterday

Maximum temperature yesterday: 92 °F (at 4:53 PM)
Minimum temperature yesterday: 71 °F (at 3:53 AM)
Average temperature yesterday: 83 °F

High & Low Weather Summary for the Past Weeks

 TemperatureHumidityPressure
High92 °F (Jul 23, 4:53 PM)97% (Jul 9, 11:53 PM)30.24 "Hg (Jul 9, 11:53 PM)
Low60 °F (Jul 20, 2:53 AM)31% (Jul 19, 3:53 PM)29.77 "Hg (Jul 23, 5:53 PM)
Average76 °F72%29.99 "Hg
* Reported Jul 9 2:53 PM — Jul 24 2:53 PM, New Haven, Weather by CustomWeather, © 2016

Note: Actual official high and low records may vary slightly from our data, if they occured in-between our weather recording intervals... More about our weather records

Advertising

New Haven Weather History for the Previous 24 Hours

Scroll right to see more
 ConditionsComfort  
Time TempWeatherWind HumidityBarometerVisibility
2:53 PM
Sun, Jul 24
84 °FPartly sunny.10 mph49%29.94 "Hg10 mi
1:53 PM84 °FPartly sunny.7 mph48%29.96 "Hg10 mi
12:53 PM83 °FPartly sunny.12 mph51%29.96 "Hg10 mi
11:53 AM79 °FScattered clouds.8 mph60%29.97 "Hg10 mi
10:53 AM83 °FSunny.6 mph44%29.97 "Hg10 mi
9:53 AM81 °FSunny.10 mph51%29.97 "Hg10 mi
8:53 AM79 °FSunny.12 mph54%29.97 "Hg10 mi
7:53 AM75 °FSunny.8 mph62%29.97 "Hg10 mi
6:53 AM73 °FSunny.5 mph66%29.97 "Hg10 mi
5:53 AM71 °FClear.3 mph68%29.95 "Hg10 mi
4:53 AM67 °FClear.No wind76%29.93 "Hg10 mi
3:53 AM70 °FClear.3 mph68%29.93 "Hg10 mi
2:53 AM75 °FClear.5 mph58%29.93 "Hg10 mi
1:53 AM75 °FClear.6 mph55%29.92 "Hg10 mi
12:53 AM76 °FClear.7 mph52%29.90 "Hg10 mi
11:53 PM
Sat, Jul 23
76 °FClear.6 mph52%29.89 "Hg10 mi
10:53 PM81 °FClear.8 mph44%29.87 "Hg10 mi
9:53 PM83 °FClear.6 mph43%29.85 "Hg10 mi
8:53 PM86 °FSunny.8 mph37%29.83 "Hg10 mi
7:53 PM89 °FSunny.8 mph32%29.81 "Hg10 mi
6:53 PM91 °FSunny.7 mph33%29.78 "Hg10 mi
5:53 PM92 °FSunny.7 mph35%29.77 "Hg10 mi
4:53 PM92 °FPassing clouds.10 mph33%29.77 "Hg10 mi
Weather by CustomWeather, © 2016

See weather overviewHow to use our weather pages